Terminal Aerodrome Forecast
Issued by NWS

Home | Current Version | Previous Version | Text Only | Print | Product List | Glossary On
Versions: 1 2 3 4 5 6 7 8 9 10 11 12
917
FTUS46 KMFR 041120
TAFLMT
TAF
KLMT 041120Z 0412/0512 VRB03KT P6SM VCSH BKN080
     FM042300 33010KT P6SM -SHRA VCTS OVC060CB
     FM050400 VRB03KT P6SM VCSH OVC060=

USA.gov is the U.S. government's official web portal to all federal, state and local government web resources and services.